Year,Month,Day,Hour,Minute,Value (Times are PST for temperature in C)
2017,01,12,00,00,-4.50
2017,01,12,00,01,-4.50
2017,01,12,00,02,-4.50
2017,01,12,00,03,-4.50
2017,01,12,00,04,-4.50
2017,01,12,00,05,-4.50
2017,01,12,00,06,-4.50
2017,01,12,00,07,-4.50
2017,01,12,00,08,-4.50
2017,01,12,00,09,-4.60
2017,01,12,00,10,-4.60
2017,01,12,00,11,-4.60
2017,01,12,00,12,-4.60
2017,01,12,00,13,-4.60
2017,01,12,00,14,-4.60
2017,01,12,00,15,-4.60
2017,01,12,00,16,-4.60
2017,01,12,00,17,-4.60
2017,01,12,00,18,-4.60
2017,01,12,00,19,-4.60
2017,01,12,00,20,-4.60
2017,01,12,00,21,-4.60
2017,01,12,00,22,-4.60
2017,01,12,00,23,-4.60
2017,01,12,00,24,-4.60
2017,01,12,00,25,-4.60
2017,01,12,00,26,-4.60
2017,01,12,00,27,-4.50
2017,01,12,00,28,-4.50
2017,01,12,00,29,-4.50
2017,01,12,00,30,-4.50
2017,01,12,00,31,-4.40
2017,01,12,00,32,-4.40
2017,01,12,00,33,-4.40
2017,01,12,00,34,-4.40
2017,01,12,00,35,-4.40
2017,01,12,00,36,-4.40
2017,01,12,00,37,-4.40
2017,01,12,00,38,-4.40
2017,01,12,00,39,-4.40
2017,01,12,00,40,-4.40
2017,01,12,00,41,-4.40
2017,01,12,00,42,-4.40
2017,01,12,00,43,-4.40
2017,01,12,00,44,-4.40
2017,01,12,00,45,-4.40
2017,01,12,00,46,-4.40
2017,01,12,00,47,-4.40
2017,01,12,00,48,-4.40
2017,01,12,00,49,-4.40
2017,01,12,00,50,-4.40
2017,01,12,00,51,-4.50
2017,01,12,00,52,-4.50
2017,01,12,00,53,-4.50
2017,01,12,00,54,-4.50
2017,01,12,00,55,-4.50
2017,01,12,00,56,-4.50
2017,01,12,00,57,-4.50
2017,01,12,00,58,-4.60
2017,01,12,00,59,-4.60
2017,01,12,01,00,-4.60
2017,01,12,01,01,-4.60
2017,01,12,01,02,-4.60
2017,01,12,01,03,-4.60
2017,01,12,01,04,-4.60
2017,01,12,01,05,-4.60
2017,01,12,01,06,-4.60
2017,01,12,01,07,-4.60
2017,01,12,01,08,-4.60
2017,01,12,01,09,-4.60
2017,01,12,01,10,-4.50
2017,01,12,01,11,-4.50
2017,01,12,01,12,-4.50
2017,01,12,01,13,-4.50
2017,01,12,01,14,-4.50
2017,01,12,01,15,-4.50
2017,01,12,01,16,-4.50
2017,01,12,01,17,-4.50
2017,01,12,01,18,-4.50
2017,01,12,01,19,-4.50
2017,01,12,01,20,-4.50
2017,01,12,01,21,-4.50
2017,01,12,01,22,-4.50
2017,01,12,01,23,-4.50
2017,01,12,01,24,-4.40
2017,01,12,01,25,-4.40
2017,01,12,01,26,-4.40
2017,01,12,01,27,-4.50
2017,01,12,01,28,-4.50
2017,01,12,01,29,-4.50
2017,01,12,01,30,-4.50
2017,01,12,01,31,-4.50
2017,01,12,01,32,-4.40
2017,01,12,01,33,-4.40
2017,01,12,01,34,-4.40
2017,01,12,01,35,-4.40
2017,01,12,01,36,-4.40
2017,01,12,01,37,-4.40
2017,01,12,01,38,-4.40
2017,01,12,01,39,-4.40
2017,01,12,01,40,-4.40
2017,01,12,01,41,-4.40
2017,01,12,01,42,-4.40
2017,01,12,01,43,-4.40
2017,01,12,01,44,-4.40
2017,01,12,01,45,-4.40
2017,01,12,01,46,-4.40
2017,01,12,01,47,-4.40
2017,01,12,01,48,-4.40
2017,01,12,01,49,-4.40
2017,01,12,01,50,-4.40
2017,01,12,01,51,-4.40
2017,01,12,01,52,-4.40
2017,01,12,01,53,-4.40
2017,01,12,01,54,-4.40
2017,01,12,01,55,-4.40
2017,01,12,01,56,-4.40
2017,01,12,01,57,-4.40
2017,01,12,01,58,-4.40
2017,01,12,01,59,-4.40
2017,01,12,02,00,-4.40
2017,01,12,02,01,-4.40
2017,01,12,02,02,-4.40
2017,01,12,02,03,-4.50
2017,01,12,02,04,-4.50
2017,01,12,02,05,-4.50
2017,01,12,02,06,-4.50
2017,01,12,02,07,-4.50
2017,01,12,02,08,-4.60
2017,01,12,02,09,-4.60
2017,01,12,02,10,-4.60
2017,01,12,02,11,-4.60
2017,01,12,02,12,-4.60
2017,01,12,02,13,-4.60
2017,01,12,02,14,-4.60
2017,01,12,02,15,-4.60
2017,01,12,02,16,-4.70
2017,01,12,02,17,-4.70
2017,01,12,02,18,-4.70
2017,01,12,02,19,-4.70
2017,01,12,02,20,-4.70
2017,01,12,02,21,-4.70
2017,01,12,02,22,-4.70
2017,01,12,02,23,-4.60
2017,01,12,02,24,-4.60
2017,01,12,02,25,-4.60
2017,01,12,02,26,-4.60
2017,01,12,02,27,-4.60
2017,01,12,02,28,-4.60
2017,01,12,02,29,-4.60
2017,01,12,02,30,-4.70
2017,01,12,02,31,-4.70
2017,01,12,02,32,-4.70
2017,01,12,02,33,-4.70
2017,01,12,02,34,-4.70
2017,01,12,02,35,-4.70
2017,01,12,02,36,-4.70
2017,01,12,02,37,-4.70
2017,01,12,02,38,-4.70
2017,01,12,02,39,-4.70
2017,01,12,02,40,-4.70
2017,01,12,08,36,-5.50
2017,01,12,08,37,-5.50
2017,01,12,08,38,-5.50
2017,01,12,08,39,-5.40
2017,01,12,08,40,-5.40
2017,01,12,08,41,-5.30
2017,01,12,08,42,-5.30
2017,01,12,08,43,-5.30
2017,01,12,08,44,-5.20
2017,01,12,08,45,-5.20
2017,01,12,08,46,-5.20
2017,01,12,08,47,-5.10
2017,01,12,08,48,-5.10
2017,01,12,08,49,-5.00
2017,01,12,08,50,-4.90
2017,01,12,08,51,-4.90
2017,01,12,08,52,-4.90
2017,01,12,08,53,-4.80
2017,01,12,08,54,-4.80
2017,01,12,08,55,-4.70
2017,01,12,08,56,-4.70
2017,01,12,08,57,-4.60
2017,01,12,08,58,-4.60
2017,01,12,08,59,-4.50
2017,01,12,09,00,-4.50
2017,01,12,09,01,-4.50
2017,01,12,09,02,-4.40
2017,01,12,09,03,-4.40
2017,01,12,09,04,-4.30
2017,01,12,09,05,-4.30
2017,01,12,09,06,-4.30
2017,01,12,09,07,-4.30
2017,01,12,09,08,-4.30
2017,01,12,09,09,-4.30
2017,01,12,09,10,-4.30
2017,01,12,09,11,-4.30
2017,01,12,09,12,-4.30
2017,01,12,09,13,-4.30
2017,01,12,09,14,-4.30
2017,01,12,09,15,-4.20
2017,01,12,09,16,-4.20
2017,01,12,09,17,-4.20
2017,01,12,09,18,-4.10
2017,01,12,09,19,-4.10
2017,01,12,09,20,-4.10
2017,01,12,09,21,-4.00
2017,01,12,09,22,-4.00
2017,01,12,09,23,-3.90
2017,01,12,09,24,-3.80
2017,01,12,09,25,-3.80
2017,01,12,09,26,-3.70
2017,01,12,09,27,-3.70
2017,01,12,09,28,-3.70
2017,01,12,09,29,-3.70
2017,01,12,09,30,-3.70
2017,01,12,09,31,-3.70
2017,01,12,09,32,-3.70
2017,01,12,09,33,-3.70
2017,01,12,09,34,-3.70
2017,01,12,09,35,-3.70
2017,01,12,09,36,-3.70
2017,01,12,09,37,-3.70
2017,01,12,09,38,-3.70
2017,01,12,09,39,-3.70
2017,01,12,09,40,-3.60
2017,01,12,09,41,-3.60
2017,01,12,09,42,-3.50
2017,01,12,09,43,-3.50
2017,01,12,09,44,-3.40
2017,01,12,09,45,-3.40
2017,01,12,09,46,-3.30
2017,01,12,09,47,-3.20
2017,01,12,09,48,-3.20
2017,01,12,09,49,-3.20
2017,01,12,09,50,-3.20
2017,01,12,09,51,-3.10
2017,01,12,09,52,-3.00
2017,01,12,09,53,-2.90
2017,01,12,09,54,-2.90
2017,01,12,09,55,-2.80
2017,01,12,09,56,-2.80
2017,01,12,09,57,-2.70
2017,01,12,09,58,-2.60
2017,01,12,09,59,-2.50
2017,01,12,10,00,-2.50
2017,01,12,10,01,-2.40
2017,01,12,10,02,-2.40
2017,01,12,10,03,-2.30
2017,01,12,10,04,-2.30
2017,01,12,10,05,-2.20
2017,01,12,10,06,-2.20
2017,01,12,10,07,-2.10
2017,01,12,10,08,-2.00
2017,01,12,10,09,-2.00
2017,01,12,10,10,-1.90
2017,01,12,10,11,-1.90
2017,01,12,10,12,-1.80
2017,01,12,10,13,-1.80
2017,01,12,10,14,-1.80
2017,01,12,10,15,-1.80
2017,01,12,10,16,-1.80
2017,01,12,10,17,-1.80
2017,01,12,10,18,-1.80
2017,01,12,10,19,-1.80
2017,01,12,10,20,-1.80
2017,01,12,10,21,-1.90
2017,01,12,10,22,-1.90
2017,01,12,10,23,-1.90
2017,01,12,10,24,-1.90
2017,01,12,10,25,-1.90
2017,01,12,10,26,-1.90
2017,01,12,10,27,-1.90
2017,01,12,10,28,-1.80
2017,01,12,10,29,-1.80
2017,01,12,10,30,-1.80
2017,01,12,10,31,-1.80
2017,01,12,10,32,-1.80
2017,01,12,10,33,-1.80
2017,01,12,10,34,-1.80
2017,01,12,10,35,-1.80
2017,01,12,10,36,-1.70
2017,01,12,10,37,-1.70
2017,01,12,10,38,-1.70
2017,01,12,10,39,-1.60
2017,01,12,10,40,-1.60
2017,01,12,10,41,-1.50
2017,01,12,10,42,-1.50
2017,01,12,10,43,-1.40
2017,01,12,10,44,-1.40
2017,01,12,10,45,-1.30
2017,01,12,10,46,-1.20
2017,01,12,10,47,-1.10
2017,01,12,10,48,-1.00
2017,01,12,10,49,-0.90
2017,01,12,10,50,-0.80
2017,01,12,10,51,-0.70
2017,01,12,10,52,-0.70
2017,01,12,10,53,-0.60
2017,01,12,10,54,-0.60
2017,01,12,10,55,-0.50
2017,01,12,10,56,-0.50
2017,01,12,10,57,-0.40
2017,01,12,10,58,-0.30
2017,01,12,10,59,-0.20
2017,01,12,11,00,-0.10
2017,01,12,11,01,0.00
2017,01,12,11,02,0.10
2017,01,12,11,03,0.10
2017,01,12,11,04,0.10
2017,01,12,11,05,0.10
2017,01,12,11,06,0.00
2017,01,12,11,07,0.00
2017,01,12,11,08,-0.10
2017,01,12,11,09,0.00
2017,01,12,11,10,0.00
2017,01,12,11,11,0.10
2017,01,12,11,12,0.10
2017,01,12,11,13,0.10
2017,01,12,11,14,0.10
2017,01,12,11,15,0.10
2017,01,12,11,16,0.10
2017,01,12,11,17,0.10
2017,01,12,11,18,0.10
2017,01,12,11,19,0.10
2017,01,12,11,20,0.10
2017,01,12,11,21,0.10
2017,01,12,11,22,0.10
2017,01,12,11,23,0.10
2017,01,12,11,24,0.10
2017,01,12,11,25,0.10
2017,01,12,11,26,0.20
2017,01,12,11,27,0.20
2017,01,12,11,28,0.20
2017,01,12,11,29,0.20
2017,01,12,11,30,0.20
2017,01,12,11,31,0.20
2017,01,12,11,32,0.30
2017,01,12,11,33,0.30
2017,01,12,11,34,0.30
2017,01,12,11,35,0.30
2017,01,12,11,36,0.30
2017,01,12,11,37,0.30
2017,01,12,11,38,0.40
2017,01,12,11,39,0.40
2017,01,12,11,40,0.40
2017,01,12,11,41,0.50
2017,01,12,11,42,0.60
2017,01,12,11,43,0.60
2017,01,12,11,44,0.60
2017,01,12,11,45,0.60
2017,01,12,11,46,0.70
2017,01,12,11,47,0.70
2017,01,12,11,48,0.70
2017,01,12,11,49,0.80
2017,01,12,11,50,0.80
2017,01,12,11,51,0.80
2017,01,12,11,52,0.90
2017,01,12,11,53,0.90
2017,01,12,11,54,1.00
2017,01,12,11,55,1.00
2017,01,12,11,56,1.00
2017,01,12,11,57,1.00
2017,01,12,11,58,1.00
2017,01,12,11,59,0.90
2017,01,12,12,00,0.90
2017,01,12,12,01,0.80
2017,01,12,12,02,0.80
2017,01,12,12,03,0.80
2017,01,12,12,04,0.80
2017,01,12,12,05,0.80
2017,01,12,12,06,0.80
2017,01,12,12,07,0.80
2017,01,12,12,08,0.80
2017,01,12,12,09,0.80
2017,01,12,12,10,0.90
2017,01,12,12,11,0.90
2017,01,12,12,12,0.90
2017,01,12,12,13,0.90
2017,01,12,12,14,0.90
2017,01,12,12,15,0.80
2017,01,12,12,16,0.80
2017,01,12,12,17,0.80
2017,01,12,12,18,0.80
2017,01,12,12,19,0.80
2017,01,12,12,20,0.80
2017,01,12,12,21,0.80
2017,01,12,12,22,0.80
2017,01,12,12,23,0.90
2017,01,12,12,24,0.90
2017,01,12,12,25,0.90
2017,01,12,12,26,1.00
2017,01,12,12,27,1.00
2017,01,12,12,28,1.00
2017,01,12,12,29,1.00
2017,01,12,12,30,0.90
2017,01,12,12,31,0.90
2017,01,12,12,32,0.90
2017,01,12,12,33,0.90
2017,01,12,12,34,1.00
2017,01,12,12,35,1.00
2017,01,12,12,36,1.00
2017,01,12,12,37,1.10
2017,01,12,12,38,1.10
2017,01,12,12,39,1.10
2017,01,12,12,40,1.10
2017,01,12,12,41,1.10
2017,01,12,12,42,1.10
2017,01,12,12,43,1.10
2017,01,12,12,44,1.10
2017,01,12,12,45,1.00
2017,01,12,12,46,1.00
2017,01,12,12,47,0.90
2017,01,12,12,48,0.80
2017,01,12,12,49,0.90
2017,01,12,12,50,1.00
2017,01,12,12,51,1.00
2017,01,12,12,52,1.10
2017,01,12,12,53,1.10
2017,01,12,12,54,1.20
2017,01,12,12,55,1.20
2017,01,12,12,56,1.30
2017,01,12,12,57,1.30
2017,01,12,12,58,1.30
2017,01,12,12,59,1.30
2017,01,12,13,00,1.30
2017,01,12,13,01,1.30
2017,01,12,13,02,1.30
2017,01,12,13,03,1.30
2017,01,12,13,04,1.40
2017,01,12,13,05,1.50
2017,01,12,13,06,1.60
2017,01,12,13,07,1.70
2017,01,12,13,08,1.80
2017,01,12,13,09,1.90
2017,01,12,13,10,2.00
2017,01,12,13,11,2.10
2017,01,12,13,12,2.10
2017,01,12,13,13,2.20
2017,01,12,13,14,2.20
2017,01,12,13,15,2.20
2017,01,12,13,16,2.20
2017,01,12,13,17,2.20
2017,01,12,13,18,2.20
2017,01,12,13,19,2.20
2017,01,12,13,20,2.20
2017,01,12,13,21,2.20
2017,01,12,13,22,2.20
2017,01,12,13,23,2.20
2017,01,12,13,24,2.10
2017,01,12,13,25,2.10
2017,01,12,13,26,2.10
2017,01,12,13,27,2.10
2017,01,12,13,28,2.20
2017,01,12,13,29,2.20
2017,01,12,13,30,2.30
2017,01,12,13,31,2.30
2017,01,12,13,32,2.30
2017,01,12,13,33,2.40
2017,01,12,13,34,2.40
2017,01,12,13,35,2.40
2017,01,12,13,36,2.50
2017,01,12,13,37,2.40
2017,01,12,13,38,2.30
2017,01,12,13,39,2.30
2017,01,12,13,40,2.30
2017,01,12,13,41,2.30
2017,01,12,13,42,2.30
2017,01,12,13,43,2.40
2017,01,12,13,44,2.40
2017,01,12,13,45,2.40
2017,01,12,13,46,2.40
2017,01,12,13,47,2.30
2017,01,12,13,48,2.30
2017,01,12,13,49,2.30
2017,01,12,13,50,2.30
2017,01,12,13,51,2.30
2017,01,12,13,52,2.30
2017,01,12,13,53,2.20
2017,01,12,13,54,2.20
2017,01,12,13,55,2.20
2017,01,12,13,56,2.20
2017,01,12,13,57,2.10
2017,01,12,13,58,2.10
2017,01,12,13,59,2.10
2017,01,12,14,00,2.10
2017,01,12,14,01,2.20
2017,01,12,14,02,2.30
2017,01,12,14,03,2.30
2017,01,12,14,04,2.40
2017,01,12,14,05,2.50
2017,01,12,14,06,2.50
2017,01,12,14,07,2.60
2017,01,12,14,08,2.60
2017,01,12,14,09,2.60
2017,01,12,14,10,2.50
2017,01,12,14,11,2.50
2017,01,12,14,12,2.40
2017,01,12,14,13,2.40
2017,01,12,14,14,2.30
2017,01,12,14,15,2.30
2017,01,12,14,16,2.30
2017,01,12,14,17,2.30
2017,01,12,14,18,2.30
2017,01,12,14,19,2.40
2017,01,12,14,20,2.40
2017,01,12,14,21,2.40
2017,01,12,14,22,2.40
2017,01,12,14,23,2.40
2017,01,12,14,24,2.40
2017,01,12,14,25,2.40
2017,01,12,14,26,2.40
2017,01,12,14,27,2.40
2017,01,12,14,28,2.40
2017,01,12,14,29,2.30
2017,01,12,14,30,2.30
2017,01,12,14,31,2.30
2017,01,12,14,32,2.30
2017,01,12,14,33,2.30
2017,01,12,14,34,2.30
2017,01,12,14,35,2.30
2017,01,12,14,36,2.30
2017,01,12,14,37,2.30
2017,01,12,14,38,2.30
2017,01,12,14,39,2.30
2017,01,12,14,40,2.30
2017,01,12,14,41,2.30
2017,01,12,14,42,2.30
2017,01,12,14,43,2.30
2017,01,12,14,44,2.30
2017,01,12,14,45,2.30
2017,01,12,14,46,2.30
2017,01,12,14,47,2.30
2017,01,12,14,48,2.30
2017,01,12,14,49,2.30
2017,01,12,14,50,2.40
2017,01,12,14,51,2.40
2017,01,12,14,52,2.40
2017,01,12,14,53,2.40
2017,01,12,14,54,2.40
2017,01,12,14,55,2.50
2017,01,12,14,56,2.50
2017,01,12,14,57,2.60
2017,01,12,14,58,2.70
2017,01,12,14,59,2.70
2017,01,12,15,00,2.80
2017,01,12,15,01,2.90
2017,01,12,15,02,3.00
2017,01,12,15,03,3.10
2017,01,12,15,04,3.10
2017,01,12,15,05,3.10
2017,01,12,15,06,3.10
2017,01,12,15,07,3.00
2017,01,12,15,08,2.90
2017,01,12,15,09,2.90
2017,01,12,15,10,2.80
2017,01,12,15,11,2.70
2017,01,12,15,12,2.70
2017,01,12,15,13,2.70
2017,01,12,15,14,2.70
2017,01,12,15,15,2.60
2017,01,12,15,16,2.60
2017,01,12,15,17,2.50
2017,01,12,15,18,2.50
2017,01,12,15,19,2.40
2017,01,12,15,20,2.40
2017,01,12,15,21,2.40
2017,01,12,15,22,2.30
2017,01,12,15,23,2.40
2017,01,12,15,24,2.30
2017,01,12,15,25,2.30
2017,01,12,15,26,2.20
2017,01,12,15,27,2.20
2017,01,12,15,28,2.10
2017,01,12,15,29,2.10
2017,01,12,15,30,2.00
2017,01,12,15,31,2.00
2017,01,12,15,32,2.00
2017,01,12,15,33,1.90
2017,01,12,15,34,1.90
2017,01,12,15,35,1.90
2017,01,12,15,36,1.90
2017,01,12,15,37,1.80
2017,01,12,15,38,1.80
2017,01,12,15,39,1.80
2017,01,12,15,40,1.80
2017,01,12,15,41,1.70
2017,01,12,15,42,1.70
2017,01,12,15,43,1.70
2017,01,12,15,44,1.70
2017,01,12,15,45,1.70
2017,01,12,15,46,1.70
2017,01,12,15,47,1.70
2017,01,12,15,48,1.60
2017,01,12,15,49,1.60
2017,01,12,15,50,1.60
2017,01,12,15,51,1.60
2017,01,12,15,52,1.60
2017,01,12,15,53,1.50
2017,01,12,15,54,1.50
2017,01,12,15,55,1.40
2017,01,12,15,56,1.40
2017,01,12,15,57,1.30
2017,01,12,15,58,1.30
2017,01,12,15,59,1.30
2017,01,12,16,00,1.30
2017,01,12,16,01,1.30
2017,01,12,16,02,1.30
2017,01,12,16,03,1.20
2017,01,12,16,04,1.10
2017,01,12,16,05,1.10
2017,01,12,16,06,1.10
2017,01,12,16,07,1.00
2017,01,12,16,08,1.00
2017,01,12,16,09,0.90
2017,01,12,16,10,0.80
2017,01,12,16,11,0.80
2017,01,12,16,12,0.70
2017,01,12,16,13,0.70
2017,01,12,16,14,0.60
2017,01,12,16,15,0.50
2017,01,12,16,16,0.50
2017,01,12,16,17,0.40
2017,01,12,16,18,0.40
2017,01,12,16,19,0.30
2017,01,12,16,20,0.30
2017,01,12,16,21,0.20
2017,01,12,16,22,0.20
2017,01,12,16,23,0.10
2017,01,12,16,24,0.10
2017,01,12,16,25,0.00
2017,01,12,16,26,0.00
2017,01,12,16,27,-0.10
2017,01,12,16,28,-0.10
2017,01,12,16,29,-0.20
2017,01,12,16,30,-0.20
2017,01,12,16,31,-0.20
2017,01,12,16,32,-0.30
2017,01,12,16,33,-0.30
2017,01,12,16,34,-0.30
2017,01,12,16,35,-0.40
2017,01,12,16,36,-0.40
2017,01,12,16,37,-0.40
2017,01,12,16,38,-0.50
2017,01,12,16,39,-0.50
2017,01,12,16,40,-0.60
2017,01,12,16,41,-0.60
2017,01,12,16,42,-0.70
2017,01,12,16,43,-0.70
2017,01,12,16,44,-0.80
2017,01,12,16,45,-0.80
2017,01,12,16,46,-0.80
2017,01,12,16,47,-0.90
2017,01,12,16,48,-0.90
2017,01,12,16,49,-0.90
2017,01,12,16,50,-1.00
2017,01,12,16,51,-1.00
2017,01,12,16,52,-1.10
2017,01,12,16,53,-1.10
2017,01,12,16,54,-1.10
2017,01,12,16,55,-1.10
2017,01,12,16,56,-1.20
2017,01,12,16,57,-1.20
2017,01,12,16,58,-1.20
2017,01,12,16,59,-1.20
2017,01,12,17,00,-1.20
2017,01,12,17,01,-1.30
2017,01,12,17,02,-1.30
2017,01,12,17,03,-1.30
2017,01,12,17,04,-1.30
2017,01,12,17,05,-1.30
2017,01,12,17,06,-1.30
2017,01,12,17,07,-1.30
2017,01,12,17,08,-1.30
2017,01,12,17,09,-1.30
2017,01,12,17,10,-1.30
2017,01,12,17,11,-1.30
2017,01,12,17,12,-1.30
2017,01,12,17,13,-1.30
2017,01,12,17,14,-1.30
2017,01,12,17,15,-1.30
2017,01,12,17,16,-1.30
2017,01,12,17,17,-1.30
2017,01,12,17,18,-1.40
2017,01,12,17,19,-1.40
2017,01,12,17,20,-1.40
2017,01,12,17,21,-1.40
2017,01,12,17,22,-1.40
2017,01,12,17,23,-1.40
2017,01,12,17,24,-1.50
2017,01,12,17,25,-1.50
2017,01,12,17,26,-1.50
2017,01,12,17,27,-1.50
2017,01,12,17,28,-1.60
2017,01,12,17,29,-1.60
2017,01,12,17,30,-1.60
2017,01,12,17,31,-1.60
2017,01,12,17,32,-1.70
2017,01,12,17,33,-1.70
2017,01,12,17,34,-1.70
2017,01,12,17,35,-1.70
2017,01,12,17,36,-1.70
2017,01,12,17,37,-1.70
2017,01,12,17,38,-1.80
2017,01,12,17,39,-1.80
2017,01,12,17,40,-1.80
2017,01,12,17,41,-1.80
2017,01,12,17,42,-1.80
2017,01,12,17,43,-1.80
2017,01,12,17,44,-1.80
2017,01,12,17,45,-1.80
2017,01,12,17,46,-1.80
2017,01,12,17,47,-1.80
2017,01,12,17,48,-1.80
2017,01,12,17,49,-1.80
2017,01,12,17,50,-1.80
2017,01,12,17,51,-1.80
2017,01,12,17,52,-1.90
2017,01,12,17,53,-1.90
2017,01,12,17,54,-1.90
2017,01,12,17,55,-1.90
2017,01,12,17,56,-1.90
2017,01,12,17,57,-2.00
2017,01,12,17,58,-2.00
2017,01,12,17,59,-2.00
2017,01,12,18,00,-2.00
2017,01,12,18,01,-2.10
2017,01,12,18,02,-2.10
2017,01,12,18,03,-2.10
2017,01,12,18,04,-2.10
2017,01,12,18,05,-2.10
2017,01,12,18,06,-2.10
2017,01,12,18,07,-2.10
2017,01,12,18,08,-2.10
2017,01,12,18,09,-2.10
2017,01,12,18,10,-2.10
2017,01,12,18,11,-2.20
2017,01,12,18,12,-2.20
2017,01,12,18,13,-2.20
2017,01,12,18,14,-2.20
2017,01,12,18,15,-2.20
2017,01,12,18,16,-2.20
2017,01,12,18,17,-2.20
2017,01,12,18,18,-2.20
2017,01,12,18,19,-2.20
2017,01,12,18,20,-2.20
2017,01,12,18,21,-2.20
2017,01,12,18,22,-2.20
2017,01,12,18,23,-2.20
2017,01,12,18,24,-2.20
2017,01,12,18,25,-2.20
2017,01,12,18,26,-2.20
2017,01,12,18,27,-2.20
2017,01,12,18,28,-2.30
2017,01,12,18,29,-2.30
2017,01,12,18,30,-2.30
2017,01,12,18,31,-2.30
2017,01,12,18,32,-2.30
2017,01,12,18,33,-2.30
2017,01,12,18,34,-2.30
2017,01,12,18,35,-2.40
2017,01,12,18,36,-2.40
2017,01,12,18,37,-2.40
2017,01,12,18,38,-2.40
2017,01,12,18,39,-2.40
2017,01,12,18,40,-2.40
2017,01,12,18,41,-2.50
2017,01,12,18,42,-2.40
2017,01,12,18,43,-2.50
2017,01,12,18,44,-2.50
2017,01,12,18,45,-2.50
2017,01,12,18,46,-2.50
2017,01,12,18,47,-2.50
2017,01,12,18,48,-2.60
2017,01,12,18,49,-2.60
2017,01,12,18,50,-2.60
2017,01,12,18,51,-2.60
2017,01,12,18,52,-2.60
2017,01,12,18,53,-2.60
2017,01,12,18,54,-2.70
2017,01,12,18,55,-2.70
2017,01,12,18,56,-2.70
2017,01,12,18,57,-2.70
2017,01,12,18,58,-2.70
2017,01,12,18,59,-2.70
2017,01,12,19,00,-2.70
2017,01,12,19,01,-2.70
2017,01,12,19,02,-2.70
2017,01,12,19,03,-2.70
2017,01,12,19,04,-2.70
2017,01,12,19,05,-2.80
2017,01,12,19,06,-2.80
2017,01,12,19,07,-2.80
2017,01,12,19,08,-2.80
2017,01,12,19,09,-2.80
2017,01,12,19,10,-2.80
2017,01,12,19,11,-2.80
2017,01,12,19,12,-2.80
2017,01,12,19,13,-2.80
2017,01,12,19,14,-2.80
2017,01,12,19,15,-2.80
2017,01,12,19,16,-2.90
2017,01,12,19,17,-2.90
2017,01,12,19,18,-2.90
2017,01,12,19,19,-2.90
2017,01,12,19,20,-2.90
2017,01,12,19,21,-2.90
2017,01,12,19,22,-2.90
2017,01,12,19,23,-3.00
2017,01,12,19,24,-3.00
2017,01,12,19,25,-3.00
2017,01,12,19,26,-3.00
2017,01,12,19,27,-3.10
2017,01,12,19,28,-3.10
2017,01,12,19,29,-3.10
2017,01,12,19,30,-3.10
2017,01,12,19,31,-3.10
2017,01,12,19,32,-3.10
2017,01,12,19,33,-3.10
2017,01,12,19,34,-3.20
2017,01,12,19,35,-3.20
2017,01,12,19,36,-3.20
2017,01,12,19,37,-3.20
2017,01,12,19,38,-3.20
2017,01,12,19,39,-3.20
2017,01,12,19,40,-3.20
2017,01,12,19,41,-3.20
2017,01,12,19,42,-3.20
2017,01,12,19,43,-3.20
2017,01,12,19,44,-3.20
2017,01,12,19,45,-3.10
2017,01,12,19,46,-3.10
2017,01,12,19,47,-3.10
2017,01,12,19,48,-3.10
2017,01,12,19,49,-3.10
2017,01,12,19,50,-3.10
2017,01,12,19,51,-3.10
2017,01,12,19,52,-3.10
2017,01,12,19,53,-3.10
2017,01,12,19,54,-3.10
2017,01,12,19,55,-3.10
2017,01,12,19,56,-3.00
2017,01,12,19,57,-3.00
2017,01,12,19,58,-3.00
2017,01,12,19,59,-3.00
2017,01,12,20,00,-3.00
2017,01,12,20,01,-3.00
2017,01,12,20,02,-3.00
2017,01,12,20,03,-3.00
2017,01,12,20,04,-3.00
2017,01,12,20,05,-3.00
2017,01,12,20,06,-3.10
2017,01,12,20,07,-3.00
2017,01,12,20,08,-3.10
2017,01,12,20,09,-3.10
2017,01,12,20,10,-3.10
2017,01,12,20,11,-3.10
2017,01,12,20,12,-3.00
2017,01,12,20,13,-3.00
2017,01,12,20,14,-3.00
2017,01,12,20,15,-3.00
2017,01,12,20,16,-3.00
2017,01,12,20,17,-3.00
2017,01,12,20,18,-3.00
2017,01,12,20,19,-3.00
2017,01,12,20,20,-3.00
2017,01,12,20,21,-3.00
2017,01,12,20,22,-3.00
2017,01,12,20,23,-3.00
2017,01,12,20,24,-3.00
2017,01,12,20,25,-3.00
2017,01,12,20,26,-3.00
2017,01,12,20,27,-3.10
2017,01,12,20,28,-3.10
2017,01,12,20,29,-3.10
2017,01,12,20,30,-3.10
2017,01,12,20,31,-3.10
2017,01,12,20,32,-3.10
2017,01,12,20,33,-3.10
2017,01,12,20,34,-3.10
2017,01,12,20,35,-3.20
2017,01,12,20,36,-3.20
2017,01,12,20,37,-3.10
2017,01,12,20,38,-3.10
2017,01,12,20,39,-3.20
2017,01,12,20,40,-3.10
2017,01,12,20,41,-3.10
2017,01,12,20,42,-3.10
2017,01,12,20,43,-3.10
2017,01,12,20,44,-3.00
2017,01,12,20,45,-3.00
2017,01,12,20,46,-2.90
2017,01,12,20,47,-2.90
2017,01,12,20,48,-2.90
2017,01,12,20,49,-2.90
2017,01,12,20,50,-2.90
2017,01,12,20,51,-2.90
2017,01,12,20,52,-2.80
2017,01,12,20,53,-2.80
2017,01,12,20,54,-2.80
2017,01,12,20,55,-2.80
2017,01,12,20,56,-2.80
2017,01,12,20,57,-2.80
2017,01,12,20,58,-2.80
2017,01,12,20,59,-2.80
2017,01,12,21,00,-2.80
2017,01,12,21,01,-2.70
2017,01,12,21,02,-2.70
2017,01,12,21,03,-2.70
2017,01,12,21,04,-2.70
2017,01,12,21,05,-2.70
2017,01,12,21,06,-2.70
2017,01,12,21,07,-2.70
2017,01,12,21,08,-2.70
2017,01,12,21,09,-2.70
2017,01,12,21,10,-2.70
2017,01,12,21,11,-2.70
2017,01,12,21,12,-2.70
2017,01,12,21,13,-2.70
2017,01,12,21,14,-2.70
2017,01,12,21,15,-2.70
2017,01,12,21,16,-2.70
2017,01,12,21,17,-2.70
2017,01,12,21,18,-2.70
2017,01,12,21,19,-2.70
2017,01,12,21,20,-2.70
2017,01,12,21,21,-2.70
2017,01,12,21,22,-2.70
2017,01,12,21,23,-2.70
2017,01,12,21,24,-2.70
2017,01,12,21,25,-2.70
2017,01,12,21,26,-2.70
2017,01,12,21,27,-2.70
2017,01,12,21,28,-2.70
2017,01,12,21,29,-2.70
2017,01,12,21,30,-2.70
2017,01,12,21,31,-2.70
2017,01,12,21,32,-2.70
2017,01,12,21,33,-2.70
2017,01,12,21,34,-2.60
2017,01,12,21,35,-2.60
2017,01,12,21,36,-2.70
2017,01,12,21,37,-2.70
2017,01,12,21,38,-2.70
2017,01,12,21,39,-2.70
2017,01,12,21,40,-2.70
2017,01,12,21,41,-2.70
2017,01,12,21,42,-2.70
2017,01,12,21,43,-2.70
2017,01,12,21,44,-2.70
2017,01,12,21,45,-2.70
2017,01,12,21,46,-2.70
2017,01,12,21,47,-2.70
2017,01,12,21,48,-2.70
2017,01,12,21,49,-2.70
2017,01,12,21,50,-2.70
2017,01,12,21,51,-2.70
2017,01,12,21,52,-2.70
2017,01,12,21,53,-2.70
2017,01,12,21,54,-2.70
2017,01,12,21,55,-2.70
2017,01,12,21,56,-2.70
2017,01,12,21,57,-2.70
2017,01,12,21,58,-2.70
2017,01,12,21,59,-2.70
2017,01,12,22,00,-2.70
2017,01,12,22,01,-2.70
2017,01,12,22,02,-2.70
2017,01,12,22,03,-2.70
2017,01,12,22,04,-2.80
2017,01,12,22,05,-2.80
2017,01,12,22,06,-2.80
2017,01,12,22,07,-2.80
2017,01,12,22,08,-2.80
2017,01,12,22,09,-2.80
2017,01,12,22,10,-2.80
2017,01,12,22,11,-2.80
2017,01,12,22,12,-2.80
2017,01,12,22,13,-2.80
2017,01,12,22,14,-2.80
2017,01,12,22,15,-2.80
2017,01,12,22,16,-2.80
2017,01,12,22,17,-2.80
2017,01,12,22,18,-2.80
2017,01,12,22,19,-2.80
2017,01,12,22,20,-2.90
2017,01,12,22,21,-2.90
2017,01,12,22,22,-2.90
2017,01,12,22,23,-2.90
2017,01,12,22,24,-2.90
2017,01,12,22,25,-2.90
2017,01,12,22,26,-2.90
2017,01,12,22,27,-2.90
2017,01,12,22,28,-3.00
2017,01,12,22,29,-3.00
2017,01,12,22,30,-3.00
2017,01,12,22,31,-3.00
2017,01,12,22,32,-3.00
2017,01,12,22,33,-3.00
2017,01,12,22,34,-3.00
2017,01,12,22,35,-3.10
2017,01,12,22,36,-3.10
2017,01,12,22,37,-3.10
2017,01,12,22,38,-3.10
2017,01,12,22,39,-3.10
2017,01,12,22,40,-3.10
2017,01,12,22,41,-3.10
2017,01,12,22,42,-3.00
2017,01,12,22,43,-3.00
2017,01,12,22,44,-3.00
2017,01,12,22,45,-3.00
2017,01,12,22,46,-3.00
2017,01,12,22,47,-3.00
2017,01,12,22,48,-3.00
2017,01,12,22,49,-3.00
2017,01,12,22,50,-2.90
2017,01,12,22,51,-2.90
2017,01,12,22,52,-2.90
2017,01,12,22,53,-2.90
2017,01,12,22,54,-2.90
2017,01,12,22,55,-2.80
2017,01,12,22,56,-2.80
2017,01,12,22,57,-2.80
2017,01,12,22,58,-2.80
2017,01,12,22,59,-2.80
2017,01,12,23,00,-2.80
2017,01,12,23,01,-2.80
2017,01,12,23,02,-2.70
2017,01,12,23,03,-2.70
2017,01,12,23,04,-2.70
2017,01,12,23,05,-2.70
2017,01,12,23,06,-2.70
2017,01,12,23,07,-2.70
2017,01,12,23,08,-2.70
2017,01,12,23,09,-2.70
2017,01,12,23,10,-2.70
2017,01,12,23,11,-2.70
2017,01,12,23,12,-2.70
2017,01,12,23,13,-2.70
2017,01,12,23,14,-2.70
2017,01,12,23,15,-2.70
2017,01,12,23,16,-2.70
2017,01,12,23,17,-2.70
2017,01,12,23,18,-2.70
2017,01,12,23,19,-2.70
2017,01,12,23,20,-2.70
2017,01,12,23,21,-2.70
2017,01,12,23,22,-2.70
2017,01,12,23,23,-2.70
2017,01,12,23,24,-2.70
2017,01,12,23,25,-2.70
2017,01,12,23,26,-2.70
2017,01,12,23,27,-2.70
2017,01,12,23,28,-2.60